Olathe, KS

12:42 PM CST on January 17, 2017 (GMT -0600)
Johnson County Executive

Weather History for KOJC - October, 2012

Change the Weather History Date:

Friday, October 19, 2012

  Actual Average Record
Temperature  
Mean Temperature 48 °F 56 °F  
Max Temperature 52 °F 66 °F 85 °F (1953)
Min Temperature 44 °F 46 °F 21 °F (1972)
Degree Days  
Heating Degree Days 17 10  
Month to date heating degree days 196 134  
Since 1 July heating degree days 234 183  
Cooling Degree Days 0 1  
Month to date cooling degree days 4 26  
Year to date cooling degree days 1801 1347  
Moisture  
Dew Point 38 °F    
Average Humidity 69    
Maximum Humidity 82    
Minimum Humidity 56    
Precipitation  
Precipitation T in 0.11 in 1.48 in (1949)
Month to date precipitation 1.07 2.30  
Year to date precipitation 22.79 34.77  
Sea Level Pressure  
Sea Level Pressure 29.76 in    
Wind  
Wind Speed 11 mph (NW)    
Max Wind Speed 29 mph    
Max Gust Speed 43 mph    
Visibility 10 miles    
Events Rain    
T = Trace of Precipitation, MM = Missing Value Source: NWS Daily Summary

Daily Weather History Graph

Daily Weather History Graph

Search for Another Location

Airport or City:

Trip Planner

Search our weather history database for the weather conditions in past years. The results will help you decide how hot, cold, wet, or windy it might be!

Date:

Astronomy

Oct. 19, 2012 Rise Set
Actual Time 7:32 AM CDT 6:34 PM CDT
Civil Twilight 7:05 AM CDT 7:01 PM CDT
Nautical Twilight 6:34 AM CDT 7:32 PM CDT
Astronomical Twilight 6:04 AM CDT 8:02 PM CDT
Moon 12:14 PM CDT (10/19) 10:15 PM CDT (10/19)
Length of Visible Light 11h 55m
Length of Day
11h 01m
Waxing Crescent, 24% of the Moon is Illuminated
Oct 19
Waxing Crescent
Oct 21
First Quarter
Oct 29
Full
Nov 6
Last Quarter
Nov 13
New

Hourly Weather History & Observations

Time (CDT) Temp. Dew Point Humidity Pressure Visibility Wind Dir Wind Speed Gust Speed Precip Events Conditions
12:53 AM 48.9 °F 36.0 °F 61% 29.67 in 10.0 mi WNW 6.9 mph - N/A   Overcast
1:53 AM 50.0 °F 36.0 °F 59% 29.66 in 10.0 mi NW 13.8 mph 28.8 mph 0.00 in   Overcast
2:53 AM 50.0 °F 36.0 °F 59% 29.66 in 10.0 mi WNW 10.4 mph 20.7 mph N/A   Overcast
3:53 AM 48.0 °F 37.0 °F 66% 29.66 in 10.0 mi WNW 11.5 mph 25.3 mph 0.00 in   Overcast
4:53 AM 48.0 °F 37.0 °F 66% 29.66 in 10.0 mi NW 17.3 mph 29.9 mph 0.00 in Rain Light Rain
5:53 AM 48.0 °F 36.0 °F 63% 29.67 in 10.0 mi NW 17.3 mph 32.2 mph 0.00 in   Overcast
6:53 AM 48.9 °F 36.0 °F 61% 29.69 in 10.0 mi NNW 20.7 mph 34.5 mph 0.00 in Rain Light Rain
7:53 AM 48.0 °F 37.0 °F 66% 29.69 in 10.0 mi NW 21.9 mph 31.1 mph 0.00 in   Overcast
8:12 AM 48.2 °F 37.4 °F 66% 29.71 in 10.0 mi NNW 15.0 mph 27.6 mph N/A   Overcast
8:53 AM 48.0 °F 37.0 °F 66% 29.73 in 10.0 mi NW 13.8 mph 27.6 mph N/A   Overcast
9:19 AM 48.2 °F 37.4 °F 66% 29.73 in 10.0 mi NW 19.6 mph 25.3 mph N/A   Overcast
9:53 AM 48.0 °F 37.9 °F 68% 29.75 in 10.0 mi NNW 23.0 mph 27.6 mph N/A   Overcast
10:53 AM 48.9 °F 37.9 °F 66% 29.77 in 10.0 mi NNW 19.6 mph 29.9 mph N/A   Overcast
11:53 AM 50.0 °F 37.9 °F 63% 29.79 in 10.0 mi NW 13.8 mph 24.2 mph N/A   Overcast
12:53 PM 48.9 °F 37.9 °F 66% 29.80 in 10.0 mi NW 17.3 mph 23.0 mph N/A   Overcast
1:39 PM 50.0 °F 37.4 °F 62% 29.80 in 10.0 mi NW 15.0 mph 21.9 mph N/A   Overcast
1:53 PM 50.0 °F 37.9 °F 63% 29.80 in 10.0 mi NW 11.5 mph 21.9 mph N/A   Overcast
2:53 PM 51.1 °F 37.9 °F 61% 29.80 in 10.0 mi NW 11.5 mph 21.9 mph N/A   Overcast
3:53 PM 52.0 °F 39.0 °F 61% 29.80 in 10.0 mi WNW 12.7 mph 18.4 mph N/A   Overcast
4:53 PM 52.0 °F 39.0 °F 61% 29.81 in 10.0 mi WNW 10.4 mph - N/A   Overcast
5:53 PM 52.0 °F 39.0 °F 61% 29.81 in 10.0 mi NW 6.9 mph - N/A   Overcast
6:53 PM 52.0 °F 39.0 °F 61% 29.81 in 10.0 mi West 3.5 mph - N/A   Overcast
7:53 PM 51.1 °F 39.0 °F 63% 29.82 in 10.0 mi Calm Calm - N/A   Scattered Clouds
8:53 PM 48.9 °F 39.9 °F 71% 29.82 in 10.0 mi Calm Calm - N/A   Overcast
9:53 PM 50.0 °F 42.1 °F 74% 29.83 in 7.0 mi Calm Calm - N/A   Overcast
10:53 PM 48.0 °F 41.0 °F 77% 29.83 in 10.0 mi East 3.5 mph - N/A   Mostly Cloudy
11:53 PM 46.0 °F 41.0 °F 83% 29.83 in 9.0 mi Calm Calm - N/A   Partly Cloudy